Temp
-10 -10 -10 -10 -10 -10 -10 -10 -10 -10 -10 -10 -10 -10 -10 -10 -10 -10 -10 -10 -10 -10 -10 -10 -10 -10 -10 -10 -10 -10 -10 -10 -10 -10 -10 -10 -10 -10 -10 -10 -11 -11 -11 -11 -11
-10 -10 -10 -10 -10 -10 -10 -10 -10 -10 -10 -10 -10 -10 -10 -10 -10 -10 -10 -10 -10 -10 -10 -10 -10 -10 -10 -10 -10 -10 -10 -10 -10 -10 -10 -10 -10 -10 -10 -10 -11 -11 -11 -11 -11
-11 -11 -10 -10 -10 -10 -10 -10 -10 -10 -10 -10 -10 -10 -10 -10 -10 -10 -10 -10 -10 -10 -10 -10 -10 -10 -10 -10 -10 -10 -10 -10 -10 -10 -10 -10 -10 -10 -10 -10 -10 -11 -11 -11 -11
-11 -11 -11 -11 -10 -10 -10 -10 -10 -10 -10 -10 -10 -10 -10 -10 -10 -10 -10 -10 -10 -10 -10 -10 -10 -10 -10 -10 -10 -10 -10 -10 -10 -10 -10 -10 -10 -10 -10 -10 -10 -11 -11 -11 -11
-11 -11 -11 -11 -11 -11 -11 -10 -10 -10 -10 -10 -10 -10 -10 -10 -10 -10 -10 -10 -10 -10 -10 -10 -10 -10 -10 -10 -10 -10 -10 -10 -10 -10 -10 -10 -10 -10 -10 -10 -10 -10 -11 -11 -10
-12 -11 -11 -11 -11 -11 -11 -11 -11 -10 -10 -10 -10 -10 -10 -10 -10 -10 -10 -10 -10 -10 -10 -10 -10 -10 -10 -10 -10 -10 -10 -10 -10 -10 -10 -10 -10 -10 -10 -10 -10 -10 -10 -10 -10
-12 -12 -11 -11 -11 -11 -11 -11 -11 -11 -10 -10 -10 -10 -10 -10 -10 -10 -10 -10 -10 -10 -10 -10 -10 -10 -10 -10 -10 -10 -10 -10 -10 -10 -10 -10 -10 -10 -10 -10 -10 -10 -10 -10 -10
-12 -12 -12 -12 -11 -11 -11 -11 -11 -11 -11 -11 -11 -10 -10 -10 -10 -10 -10 -10 -10 -10 -10 -10 -10 -10 -10 -10 -10 -10 -10 -10 -10 -10 -10 -10 -10 -10 -10 -10 -10 -10 -10 -10 -10
-13 -12 -12 -12 -12 -12 -11 -11 -11 -11 -11 -11 -11 -10 -10 -11 -11 -10 -10 -10 -10 -10 -10 -10 -10 -10 -10 -10 -10 -10 -10 -10 -10 -10 -10 -11 -10 -10 -10 -10 -10 -10 -10 -10 -10
-13 -13 -13 -12 -12 -12 -12 -11 -11 -11 -11 -11 -11 -11 -10 -11 -11 -11 -11 -11 -10 -10 -10 -10 -10 -10 -11 -11 -11 -10 -10 -11 -11 -10 -10 -10 -11 -10 -10 -10 -10 -10 -10 -10 -10
-13 -13 -13 -13 -12 -12 -12 -12 -11 -11 -11 -11 -11 -11 -11 -11 -11 -11 -11 -11 -11 -11 -11 -11 -11 -11 -11 -11 -11 -11 -11 -11 -11 -10 -10 -10 -10 -10 -10 -10 -10 -10 -10 -10 -10
-13 -13 -13 -13 -13 -12 -12 -12 -12 -12 -11 -11 -11 -11 -11 -11 -11 -12 -11 -11 -11 -11 -11 -11 -11 -11 -11 -11 -11 -11 -11 -11 -11 -11 -10 -10 -10 -10 -10 -10 -10 -10 -10 -10 -10
-15 -14 -14 -13 -13 -13 -13 -13 -13 -13 -12 -12 -12 -11 -12 -12 -12 -12 -12 -12 -12 -12 -12 -11 -11 -11 -11 -11 -11 -11 -11 -11 -11 -11 -10 -10 -9 -10 -10 -10 -10 -10 -11 -11 -11
-15 -14 -14 -14 -13 -13 -13 -14 -13 -13 -12 -11 -12 -12 -12 -12 -11 -12 -12 -12 -12 -12 -12 -11 -11 -12 -12 -12 -12 -11 -12 -11 -11 -11 -10 -10 -9 -9 -10 -10 -11 -11 -11 -11 -11
-14 -14 -15 -14 -13 -14 -15 -15 -14 -14 -13 -12 -11 -11 -12 -12 -11 -12 -12 -12 -12 -12 -12 -11 -12 -12 -12 -12 -12 -11 -11 -11 -11 -11 -10 -10 -10 -9 -11 -11 -11 -11 -12 -12 -12
-14 -14 -14 -14 -13 -14 -15 -16 -16 -15 -11 -11 -11 -11 -11 -12 -12 -12 -12 -12 -12 -12 -12 -12 -12 -12 -12 -12 -12 -12 -12 -11 -11 -11 -10 -10 -11 -9 -11 -12 -11 -12 -12 -12 -12
-14 -14 -14 -13 -13 -15 -15 -16 -16 -13 -10 -10 -11 -11 -12 -12 -12 -13 -13 -13 -13 -13 -13 -13 -13 -13 -12 -13 -13 -12 -12 -12 -12 -11 -10 -10 -11 -10 -11 -12 -12 -12 -12 -12 -13
-14 -14 -14 -13 -14 -14 -14 -15 -15 -10 -11 -11 -11 -12 -12 -12 -12 -13 -14 -13 -13 -14 -14 -14 -13 -13 -13 -13 -13 -13 -12 -12 -12 -11 -11 -11 -10 -11 -11 -12 -12 -13 -13 -13 -13
-14 -14 -14 -14 -14 -14 -14 -15 -11 -11 -12 -12 -12 -12 -12 -13 -13 -13 -13 -14 -14 -14 -14 -14 -13 -13 -13 -13 -13 -13 -12 -13 -13 -12 -12 -11 -11 -11 -11 -12 -13 -13 -13 -14 -14
-15 -14 -14 -14 -14 -14 -15 -15 -12 -13 -13 -13 -14 -13 -13 -13 -14 -14 -13 -12 -14 -14 -15 -14 -13 -13 -13 -13 -13 -13 -13 -13 -13 -13 -12 -11 -11 -11 -12 -12 -13 -14 -14 -14 -14
-15 -15 -14 -15 -15 -16 -16 -13 -13 -13 -14 -14 -13 -14 -13 -14 -14 -13 -13 -13 -14 -15 -15 -14 -14 -13 -13 -12 -13 -13 -13 -14 -14 -13 -13 -12 -11 -12 -12 -13 -13 -13 -14 -14 -14
-15 -15 -15 -15 -15 -15 -15 -12 -14 -14 -14 -15 -14 -14 -13 -14 -14 -14 -13 -14 -15 -15 -14 -15 -14 -13 -13 -13 -13 -13 -13 -14 -13 -13 -13 -13 -12 -13 -13 -13 -14 -15 -15 -15 -15
-15 -15 -15 -15 -15 -15 -15 -14 -15 -14 -14 -15 -14 -14 -14 -14 -14 -14 -13 -14 -15 -14 -14 -15 -14 -14 -13 -12 -12 -12 -13 -13 -14 -14 -13 -14 -12 -13 -13 -14 -15 -15 -15 -15 -16
-16 -16 -16 -15 -15 -15 -15 -15 -15 -14 -15 -15 -14 -15 -15 -14 -14 -13 -13 -15 -15 -14 -15 -15 -15 -14 -13 -13 -14 -14 -14 -14 -14 -14 -13 -12 -13 -14 -14 -14 -15 -16 -16 -16 -16
-17 -16 -16 -16 -16 -16 -16 -15 -15 -15 -15 -15 -15 -14 -14 -15 -14 -13 -14 -15 -15 -14 -14 -15 -14 -14 -14 -14 -14 -14 -14 -14 -14 -13 -14 -13 -14 -15 -16 -16 -16 -16 -16 -16 -17
-17 -17 -17 -17 -16 -16 -16 -16 -15 -15 -15 -15 -15 -14 -15 -14 -14 -14 -15 -15 -15 -15 -15 -15 -14 -15 -14 -14 -14 -15 -14 -14 -14 -14 -14 -14 -14 -15 -16 -17 -17 -17 -17 -17 -18
-19 -17 -17 -17 -17 -17 -16 -16 -16 -16 -15 -15 -15 -15 -15 -14 -15 -15 -15 -15 -15 -15 -15 -15 -15 -15 -14 -15 -15 -15 -13 -14 -14 -15 -15 -15 -15 -17 -17 -17 -17 -17 -18 -18 -18
Height
5849 5852 5854 5858 5860 5863 5866 5868 5869 5871 5873 5874 5875 5876 5877 5878 5879 5880 5881 5883 5884 5884 5885 5886 5886 5887 5887 5887 5887 5886 5886 5884 5882 5883 5881 5881 5881 5880 5880 5879 5878 5877 5877 5876 5875
5845 5847 5850 5853 5856 5858 5861 5864 5866 5868 5870 5871 5873 5874 5875 5877 5878 5878 5879 5880 5881 5882 5883 5884 5884 5884 5884 5884 5884 5883 5883 5881 5880 5880 5879 5878 5877 5877 5878 5877 5876 5875 5875 5874 5873
5839 5843 5846 5848 5851 5853 5856 5859 5862 5864 5866 5868 5869 5871 5873 5874 5875 5875 5876 5877 5878 5879 5880 5880 5881 5881 5881 5881 5881 5880 5879 5878 5877 5877 5876 5875 5874 5874 5874 5874 5873 5874 5873 5872 5871
5833 5836 5840 5843 5845 5848 5851 5854 5856 5859 5862 5864 5865 5867 5868 5870 5872 5872 5873 5873 5874 5876 5876 5876 5877 5877 5878 5878 5877 5876 5875 5874 5873 5873 5872 5871 5871 5870 5870 5870 5870 5869 5869 5869 5868
5826 5830 5833 5836 5839 5843 5845 5848 5851 5853 5856 5858 5860 5862 5864 5865 5867 5868 5868 5869 5870 5871 5872 5872 5872 5873 5873 5873 5873 5872 5871 5870 5869 5869 5868 5867 5867 5867 5867 5866 5866 5866 5865 5864 5863
5819 5822 5826 5830 5833 5836 5839 5841 5844 5847 5849 5852 5854 5856 5859 5860 5861 5863 5863 5864 5865 5866 5866 5867 5867 5868 5868 5867 5868 5867 5866 5865 5865 5864 5864 5863 5862 5862 5863 5862 5862 5861 5860 5860 5859
5811 5815 5819 5822 5825 5828 5832 5834 5837 5840 5842 5845 5847 5850 5852 5854 5855 5856 5857 5859 5860 5860 5861 5861 5861 5862 5862 5862 5862 5862 5861 5860 5860 5859 5858 5857 5857 5857 5857 5857 5857 5856 5856 5855 5855
5802 5806 5810 5814 5818 5821 5824 5827 5829 5832 5835 5838 5841 5843 5845 5847 5848 5850 5851 5852 5853 5854 5855 5855 5855 5856 5856 5856 5856 5855 5856 5855 5854 5853 5852 5853 5852 5851 5851 5851 5850 5850 5851 5850 5850
5791 5796 5801 5805 5808 5812 5815 5818 5821 5824 5827 5830 5833 5835 5838 5841 5841 5842 5843 5845 5846 5847 5848 5848 5848 5849 5850 5849 5849 5849 5849 5849 5848 5847 5846 5847 5846 5845 5845 5845 5844 5844 5843 5843 5843
5780 5785 5790 5794 5798 5803 5806 5809 5812 5815 5818 5821 5824 5827 5831 5832 5833 5834 5835 5837 5838 5839 5840 5841 5841 5841 5843 5841 5841 5841 5842 5843 5842 5841 5840 5840 5841 5839 5838 5838 5837 5837 5836 5836 5836
5769 5774 5778 5783 5788 5792 5796 5799 5803 5806 5809 5812 5814 5817 5819 5822 5824 5826 5826 5827 5829 5831 5832 5832 5833 5836 5833 5831 5833 5834 5835 5836 5836 5832 5832 5833 5834 5834 5833 5832 5831 5830 5830 5829 5828
5758 5763 5767 5772 5777 5781 5785 5789 5792 5795 5797 5800 5803 5806 5809 5811 5814 5816 5817 5819 5820 5822 5822 5824 5825 5826 5825 5825 5825 5827 5827 5829 5828 5825 5823 5824 5826 5826 5826 5825 5825 5824 5824 5822 5821
5744 5750 5756 5760 5765 5771 5776 5778 5781 5783 5783 5791 5793 5795 5798 5801 5803 5806 5808 5810 5811 5812 5814 5813 5816 5817 5817 5817 5817 5818 5818 5820 5818 5817 5814 5815 5816 5819 5817 5817 5816 5816 5816 5815 5815
5730 5736 5742 5748 5755 5760 5765 5765 5769 5772 5770 5775 5783 5781 5786 5789 5790 5795 5798 5802 5802 5804 5804 5803 5808 5809 5809 5809 5809 5807 5810 5809 5808 5807 5805 5807 5803 5810 5810 5809 5809 5809 5808 5807 5805
5715 5721 5728 5736 5742 5748 5752 5750 5756 5759 5757 5762 5767 5772 5776 5779 5783 5787 5789 5791 5792 5794 5795 5797 5798 5799 5800 5803 5799 5798 5800 5799 5798 5796 5794 5795 5797 5797 5801 5802 5801 5800 5799 5798 5797
5700 5706 5713 5719 5727 5736 5734 5736 5742 5746 5741 5746 5752 5760 5765 5769 5772 5775 5778 5781 5783 5783 5784 5786 5788 5789 5790 5791 5790 5788 5789 5789 5787 5785 5781 5788 5788 5784 5793 5793 5792 5791 5790 5789 5788
5688 5692 5698 5707 5716 5718 5717 5720 5723 5726 5733 5736 5741 5748 5755 5759 5763 5765 5767 5770 5773 5773 5775 5776 5778 5778 5779 5780 5780 5780 5780 5777 5775 5773 5775 5777 5777 5777 5778 5782 5783 5782 5780 5779 5778
5676 5679 5685 5693 5700 5700 5700 5702 5703 5720 5723 5725 5728 5736 5742 5748 5751 5754 5756 5757 5761 5763 5765 5763 5764 5766 5768 5769 5768 5767 5767 5767 5764 5765 5766 5765 5763 5768 5771 5771 5771 5771 5771 5771 5771
5662 5663 5669 5677 5683 5683 5684 5677 5694 5704 5708 5714 5717 5722 5727 5733 5737 5741 5742 5745 5748 5752 5752 5751 5750 5751 5755 5756 5757 5756 5755 5761 5756 5754 5753 5754 5756 5758 5760 5761 5760 5760 5761 5761 5760
5647 5648 5654 5661 5667 5666 5661 5663 5685 5691 5696 5698 5707 5712 5714 5718 5721 5725 5729 5732 5735 5739 5738 5737 5736 5738 5740 5743 5743 5744 5749 5746 5745 5745 5745 5744 5745 5747 5749 5748 5748 5749 5748 5747 5745
5632 5628 5641 5646 5649 5643 5639 5656 5671 5676 5682 5685 5693 5697 5701 5704 5707 5709 5713 5716 5719 5724 5724 5725 5725 5727 5727 5729 5734 5734 5733 5735 5736 5735 5735 5735 5735 5735 5735 5736 5737 5736 5735 5733 5730
5614 5612 5623 5631 5627 5626 5629 5650 5653 5658 5666 5674 5678 5682 5685 5688 5691 5695 5697 5703 5707 5710 5710 5713 5710 5711 5715 5717 5719 5719 5720 5722 5722 5727 5728 5725 5724 5722 5721 5722 5724 5722 5720 5718 5716
5595 5601 5606 5612 5607 5612 5623 5630 5636 5642 5648 5655 5661 5667 5670 5673 5676 5681 5684 5692 5693 5695 5698 5701 5698 5699 5701 5704 5703 5706 5711 5714 5714 5714 5714 5712 5714 5710 5711 5712 5710 5708 5704 5702 5700
5581 5582 5587 5590 5597 5603 5611 5617 5622 5628 5632 5642 5649 5650 5655 5657 5663 5667 5671 5675 5681 5682 5685 5685 5684 5687 5691 5694 5697 5697 5700 5701 5701 5699 5701 5700 5702 5698 5699 5697 5695 5692 5689 5686 5684
5561 5564 5571 5573 5582 5590 5595 5604 5610 5614 5622 5625 5630 5637 5641 5642 5647 5654 5656 5661 5665 5669 5670 5668 5670 5673 5678 5681 5680 5682 5684 5685 5683 5688 5681 5690 5684 5685 5683 5682 5680 5675 5673 5671 5669
5541 5549 5557 5563 5571 5576 5582 5586 5594 5604 5605 5611 5615 5625 5626 5628 5637 5643 5645 5646 5651 5653 5654 5653 5656 5658 5661 5665 5665 5663 5666 5667 5667 5668 5666 5668 5671 5670 5672 5665 5662 5658 5657 5655 5655
5523 5536 5542 5547 5555 5560 5566 5574 5582 5588 5590 5595 5601 5606 5608 5618 5623 5625 5626 5631 5634 5636 5638 5640 5642 5643 5643 5648 5646 5639 5653 5651 5652 5651 5654 5649 5660 5656 5652 5649 5645 5643 5641 5641 5638
Wind_Speed
26 25 24 23 22 20 18 17 15 14 13 12 11 9 8 7 7 8 8 10 10 10 10 10 10 10 10 11 12 13 14 16 17 13 10 7 6 6 6 6 6 6 5 3 5
29 28 27 25 24 22 21 19 18 17 16 14 13 11 10 9 9 9 11 12 13 14 14 14 13 13 14 15 15 15 17 18 18 13 10 10 11 10 9 8 8 8 8 8 9
32 31 30 29 27 25 24 23 22 20 19 18 17 16 15 13 13 12 13 14 15 17 18 18 18 18 19 18 17 18 19 19 16 14 13 13 13 12 11 11 12 10 11 11 11
35 34 33 32 30 29 28 27 26 24 23 21 20 20 19 18 16 17 16 17 18 19 20 21 22 22 21 20 20 20 20 19 16 16 16 17 15 14 13 14 13 14 13 13 14
39 38 37 36 34 33 31 30 30 28 27 26 25 24 23 22 22 20 20 19 19 20 22 23 23 22 22 22 21 22 21 20 20 20 19 19 16 15 15 15 16 14 15 15 15
42 41 40 39 38 37 35 34 33 33 31 30 29 28 26 26 25 24 24 24 24 24 24 25 26 25 25 25 24 23 23 22 22 22 21 20 18 17 17 17 17 17 17 16 17
45 45 44 43 42 41 39 38 37 37 35 34 33 32 30 30 29 29 28 28 28 29 29 28 29 29 28 29 28 25 24 24 24 24 22 21 20 21 20 20 19 19 19 19 20
49 48 47 46 45 44 43 42 41 40 39 38 37 36 34 34 34 33 33 33 32 31 31 32 32 32 31 31 30 28 26 26 25 24 25 23 23 22 22 22 22 22 22 23 24
52 52 51 50 48 47 46 45 44 43 43 42 41 40 39 36 37 38 37 35 34 34 33 33 33 32 32 32 32 30 28 26 25 26 26 24 23 24 25 25 25 26 26 26 26
54 54 53 53 52 51 50 49 49 48 47 46 45 45 43 40 40 40 39 38 38 37 36 35 36 35 32 32 33 31 28 26 25 28 28 27 27 27 28 28 29 29 27 26 24
57 55 54 54 54 53 52 52 52 51 50 48 49 48 47 44 42 41 42 42 40 38 37 37 38 31 33 36 33 31 29 27 27 32 32 32 31 29 30 30 31 29 25 25 24
58 59 58 56 55 54 53 53 53 53 53 51 52 51 50 48 46 43 43 43 42 42 41 40 38 35 36 34 32 30 32 29 30 34 35 35 32 32 33 32 31 29 27 26 27
61 62 60 58 59 56 55 54 53 54 57 53 54 54 52 52 51 49 47 46 44 42 40 40 37 34 34 35 34 34 35 33 35 36 38 37 37 34 34 32 31 31 30 30 30
64 63 63 63 63 55 54 54 55 55 59 59 53 55 53 50 49 46 43 41 40 37 37 39 36 36 36 37 36 38 35 37 39 41 41 39 43 32 32 32 31 31 32 32 31
76 71 68 64 61 59 56 58 57 56 61 59 56 54 51 50 48 42 40 39 39 38 39 39 37 37 39 36 39 41 39 42 42 43 45 43 41 38 32 32 33 33 33 34 34
53 74 76 72 68 61 62 61 59 58 62 59 54 49 48 45 44 41 40 41 40 39 39 39 39 38 37 38 42 45 43 41 43 45 48 39 39 44 32 32 33 34 34 33 33
54 60 72 74 70 67 66 64 64 66 62 61 58 55 48 46 43 41 38 37 37 38 38 38 41 44 43 43 42 43 43 45 46 47 45 42 42 42 39 34 32 34 35 34 32
54 54 60 62 69 74 74 71 73 64 64 63 62 57 54 50 47 47 45 45 48 43 43 47 51 51 51 46 46 45 46 46 46 45 44 45 46 42 39 39 36 37 35 32 31
52 57 59 62 62 78 73 75 74 71 69 66 65 61 60 55 54 53 52 51 49 46 46 49 51 51 49 48 47 46 46 39 43 46 47 47 45 43 42 41 41 38 36 34 36
53 60 60 62 62 67 85 80 67 73 72 71 67 64 63 59 56 58 56 52 50 50 52 51 51 51 52 48 49 48 43 44 46 46 46 47 47 47 45 44 43 40 39 38 39
53 60 54 53 53 67 82 73 71 75 74 71 66 63 64 63 62 56 56 54 52 49 51 50 49 50 52 50 45 44 46 45 45 46 47 48 47 48 49 47 45 43 41 43 47
60 59 56 54 61 69 70 54 66 74 75 71 67 64 61 59 56 57 58 50 44 46 52 50 51 53 53 49 45 47 48 48 50 47 46 48 49 52 51 50 48 47 47 49 52
70 68 66 63 71 69 68 60 65 61 59 61 64 62 60 58 56 53 54 42 41 42 43 44 48 49 52 53 53 51 45 46 48 48 50 54 50 54 51 49 51 51 53 54 56
58 57 67 70 69 74 67 64 63 62 63 61 62 63 61 59 57 54 52 48 45 43 45 48 49 50 51 51 49 49 47 47 50 53 53 54 55 56 53 53 55 56 58 59 61
63 62 56 63 69 65 68 68 69 71 69 67 63 62 59 61 57 54 53 49 49 48 49 48 52 51 52 54 56 55 55 54 58 56 63 59 63 58 56 56 60 61 63 65 64
75 64 63 60 58 59 57 62 65 64 66 64 65 65 63 63 60 56 54 55 52 51 50 57 56 55 55 57 61 65 63 62 64 65 66 66 66 64 56 55 61 65 65 65 64
71 71 60 64 59 52 56 56 54 61 61 58 60 65 64 66 62 61 65 61 61 58 57 54 56 56 59 59 63 70 65 67 66 66 66 67 60 61 57 59 65 66 66 66 68
Wind_Direction
201 202 202 205 205 208 209 211 210 213 211 210 205 209 210 223 236 236 235 233 233 232 232 237 248 259 274 287 296 301 307 310 314 319 312 301 285 286 283 287 298 307 306 257 240
208 208 208 210 212 214 217 217 221 222 222 224 224 225 229 237 241 247 247 243 243 244 246 249 256 267 277 284 290 296 302 305 306 303 289 294 288 285 281 281 281 293 295 279 269
213 214 215 214 217 219 221 223 226 229 230 230 233 236 242 246 250 252 252 252 250 250 253 256 262 271 279 282 285 291 300 302 298 294 286 292 283 280 279 276 276 284 288 287 279
217 217 218 220 220 222 224 227 229 231 233 235 236 239 243 248 252 256 256 253 252 254 257 259 264 270 274 278 284 291 297 294 288 287 282 286 284 281 278 279 284 288 287 282 277
220 221 222 223 224 227 228 229 232 232 235 237 239 241 244 250 256 258 258 259 259 259 261 263 264 267 271 277 284 290 293 287 284 286 283 280 279 277 281 283 284 283 281 281 277
225 225 226 226 228 230 230 232 234 236 238 239 241 243 246 251 257 261 261 260 260 262 263 265 266 269 273 277 282 289 289 281 280 282 281 280 281 279 278 279 281 281 281 279 278
230 229 230 231 231 232 234 235 236 238 239 242 243 245 247 253 258 262 263 263 265 265 266 266 267 269 272 277 280 283 281 276 277 279 277 276 277 276 277 277 278 279 280 280 280
232 233 233 233 234 235 236 238 239 241 242 244 247 248 250 255 259 262 264 267 266 265 266 266 267 270 272 273 276 278 273 271 276 274 272 273 274 274 275 278 283 285 285 285 284
233 234 236 236 237 238 239 240 242 243 244 246 248 251 254 255 260 263 266 264 265 267 268 268 268 268 271 273 274 273 268 268 266 267 268 268 271 273 276 280 284 284 284 285 286
234 235 236 237 239 241 242 243 244 245 246 249 251 254 256 258 260 263 264 265 267 268 268 268 268 268 271 269 267 267 271 264 264 265 264 266 271 275 278 281 282 282 279 279 280
236 237 237 239 239 240 242 244 245 247 249 252 252 255 258 259 261 262 264 265 267 266 267 266 266 269 263 263 268 267 263 262 263 264 263 266 271 272 274 277 275 272 273 274 272
239 238 237 239 241 242 244 246 248 249 249 251 252 254 256 259 259 260 262 264 266 267 266 266 267 263 263 263 263 263 266 265 258 258 263 266 271 273 273 273 269 266 266 265 268
235 236 240 238 240 243 245 247 249 250 252 249 253 255 257 257 259 260 260 262 263 264 265 264 262 258 260 261 263 262 264 263 260 258 263 268 269 273 270 266 263 263 263 267 273
235 237 239 240 238 241 245 246 248 250 253 251 251 254 253 256 256 257 259 260 261 260 258 258 262 263 260 260 262 261 261 263 265 266 267 265 272 269 267 265 265 265 267 270 272
236 235 236 238 240 241 241 242 244 247 250 253 249 251 254 255 259 257 258 256 256 256 256 258 259 263 264 263 259 261 261 265 267 266 267 268 271 270 263 266 267 267 268 273 276
240 237 236 235 238 237 239 242 244 245 246 249 252 250 250 252 256 259 257 256 257 257 257 259 262 263 264 262 260 263 264 268 266 265 264 267 268 269 269 266 268 270 274 276 274
240 237 240 243 243 237 239 239 239 242 249 253 254 255 256 256 258 256 257 255 254 255 258 261 262 262 263 267 266 264 267 268 265 263 268 268 264 269 272 272 269 271 273 274 273
241 242 237 239 245 237 240 240 239 248 248 254 257 257 258 258 261 261 261 264 256 262 264 265 266 263 261 265 265 264 261 261 263 266 266 265 267 270 272 277 276 273 273 271 272
234 241 242 241 239 240 236 240 247 247 246 248 252 258 261 262 261 260 264 263 264 257 263 265 268 263 259 261 261 263 263 264 263 263 266 269 271 274 277 278 278 280 278 275 276
238 244 244 239 240 244 236 238 248 245 246 251 250 254 258 262 262 260 263 261 260 255 260 267 268 262 259 259 258 258 259 257 260 264 269 270 273 277 279 278 281 281 278 277 277
242 235 233 235 238 242 238 247 249 247 245 249 253 255 257 258 258 262 261 259 256 254 255 263 265 260 260 260 260 258 257 259 261 262 267 272 279 280 278 278 282 286 282 281 280
236 227 223 226 233 238 242 243 246 245 247 247 251 251 253 253 252 254 253 253 257 256 250 259 263 258 260 259 252 247 251 253 257 265 270 272 272 276 279 280 288 288 283 280 281
230 225 228 232 234 232 239 243 241 239 240 245 247 246 249 249 252 250 250 253 254 253 251 256 259 258 255 254 252 254 261 266 265 265 266 265 276 281 284 284 283 285 282 284 284
223 225 228 232 232 234 238 237 241 243 249 246 247 249 248 245 244 251 249 256 250 257 253 257 256 256 258 261 259 257 260 260 261 263 268 271 274 278 281 283 281 281 281 278 280
223 221 225 228 229 232 235 237 240 244 243 247 248 244 244 246 246 250 254 259 255 263 257 260 257 265 263 257 257 258 259 261 262 270 267 275 273 273 271 274 276 276 277 279 281
231 229 225 228 230 233 235 236 238 238 240 245 248 245 247 245 247 253 259 263 257 260 260 263 267 262 260 261 258 257 260 266 265 268 269 270 274 275 276 274 270 271 278 277 279
238 229 227 225 228 234 238 236 239 243 247 247 248 242 246 247 251 253 253 257 257 257 258 259 261 263 263 262 260 258 262 269 269 268 270 268 275 269 267 269 271 274 274 276 279